DateTimeUTC,F1_A11,F1_S11,BsB_S11,BsG_S11,BsR_S11,BbsB_S11,BbsG_S11,BbsR_S11,BaB_A11,BaG_A11,BaR_A11,Tu_S11,T_S11,Uu_S11,U_S11,P_S11,T1_A11
2021-07-30T17:00:00Z,00000200,20000000,,,,,,,-000.12,-000.03,0000.02,21.3,27.7,08.7,05.9,0683.4,31.8
2021-07-30T17:01:00Z,00000200,20000000,,,,,,,0000.03,-000.04,0000.05,21.3,27.7,08.7,05.9,0683.4,31.8
2021-07-30T17:02:00Z,00000200,20000000,,,,,,,-000.25,-000.07,0000.00,21.3,27.7,08.7,05.9,0683.4,31.8
2021-07-30T17:03:00Z,00000200,60000000,,,,,,,0001.69,0001.58,0001.00,21.3,27.7,08.7,05.9,0683.4,31.8
2021-07-30T17:04:00Z,00000200,40000000,0009.49,0006.77,0003.69,0000.97,0001.38,0000.39,0002.30,0001.82,0001.69,21.4,27.6,08.7,06.0,0684.3,31.8
2021-07-30T17:05:00Z,00000200,00000000,0009.89,0006.39,0003.48,0001.01,0001.00,0000.49,0001.93,0001.64,0001.06,21.5,27.5,08.6,06.0,0684.3,31.8
2021-07-30T17:06:00Z,00000200,00000000,0008.04,0006.05,0003.45,0001.61,0000.95,0000.46,0002.09,0002.18,0001.55,21.5,27.5,08.7,06.0,0684.3,31.8
2021-07-30T17:07:00Z,00000200,00000000,0010.24,0006.51,0003.26,0001.35,0001.12,0000.68,0002.41,0002.04,0001.56,21.4,27.5,08.7,06.1,0684.3,31.8
2021-07-30T17:08:00Z,00000200,00000000,0010.04,0006.78,0003.76,0001.25,0001.14,0000.53,0001.90,0001.94,0001.33,21.5,27.5,08.7,06.1,0684.3,31.8
2021-07-30T17:09:00Z,00000200,00000000,0009.69,0006.74,0003.90,0001.16,0000.86,0000.77,0002.58,0002.05,0001.44,21.5,27.5,08.8,06.1,0684.3,31.8
2021-07-30T17:10:00Z,00000200,00000000,0009.39,0006.36,0004.17,0001.25,0001.25,0000.84,0002.41,0002.24,0001.85,21.5,27.5,08.9,06.2,0684.3,31.8
2021-07-30T17:11:00Z,00000200,00000000,0008.38,0005.81,0003.32,0000.40,0001.01,0000.42,0002.12,0001.63,0000.93,21.5,27.5,08.9,06.2,0684.3,31.8
2021-07-30T17:12:00Z,00000200,00000000,0008.12,0006.28,0003.67,0001.30,0001.00,0000.58,0001.68,0001.94,0001.53,21.5,27.5,08.9,06.2,0684.3,31.8
2021-07-30T17:13:00Z,00000200,00000000,0008.30,0005.94,0003.60,0001.58,0000.71,0000.66,0002.23,0001.97,0001.31,21.5,27.5,08.8,06.1,0684.3,31.9
2021-07-30T17:14:00Z,00000200,00000000,0007.95,0005.69,0003.30,0000.96,0000.84,0000.50,0001.87,0001.45,0001.47,21.5,27.5,08.7,06.0,0684.3,31.9
2021-07-30T17:15:00Z,00000200,00000000,0008.06,0005.63,0003.02,0001.06,0000.69,0000.32,0001.99,0001.80,0001.08,21.5,27.5,08.7,06.1,0684.3,31.9
2021-07-30T17:16:00Z,00000200,00000000,0008.38,0005.93,0003.18,0000.93,0000.44,0000.41,0001.98,0002.08,0001.79,21.5,27.5,08.9,06.2,0684.3,31.9
2021-07-30T17:17:00Z,00000200,00000000,0008.51,0005.94,0002.98,0001.42,0000.98,0000.40,0002.13,0001.77,0001.10,21.5,27.5,08.8,06.1,0684.3,31.9
2021-07-30T17:18:00Z,00000200,00000000,0009.58,0006.55,0003.52,0001.02,0000.66,0000.55,0002.26,0001.74,0001.31,21.5,27.5,08.7,06.1,0684.3,31.9
2021-07-30T17:19:00Z,00000200,00000000,0009.30,0006.91,0003.81,0000.79,0001.02,0000.33,0002.22,0002.23,0001.65,21.5,27.5,08.8,06.1,0684.3,31.9
2021-07-30T17:20:00Z,00000200,00000000,0009.53,0006.49,0003.59,0001.72,0000.62,0000.47,0002.19,0002.38,0001.59,21.5,27.5,08.9,06.2,0684.3,31.9
2021-07-30T17:21:00Z,00000200,00000000,0010.80,0007.16,0003.73,0000.98,0000.86,0000.46,0001.98,0001.94,0001.43,21.5,27.5,08.9,06.2,0684.3,31.9
2021-07-30T17:22:00Z,00000200,00000000,0009.63,0006.97,0003.90,0001.61,0001.28,0000.64,0003.05,0002.12,0001.77,21.5,27.6,09.0,06.3,0684.3,31.9
2021-07-30T17:23:00Z,00000200,00000000,0010.36,0007.64,0004.37,0001.44,0000.78,0000.54,0002.53,0002.55,0001.51,21.5,27.5,09.0,06.3,0684.3,31.9
2021-07-30T17:24:00Z,00000200,00000000,0010.45,0006.75,0003.99,0001.46,0000.96,0000.39,0002.23,0001.96,0001.93,21.6,27.5,09.0,06.3,0684.3,31.9
2021-07-30T17:25:00Z,00000200,00000000,0009.59,0006.29,0003.19,0000.76,0000.96,0000.50,0002.27,0002.09,0001.47,21.6,27.5,08.8,06.2,0684.3,31.9
2021-07-30T17:26:00Z,00000200,00000000,0008.49,0005.99,0003.13,0001.38,0000.84,0000.45,0001.92,0001.68,0001.57,21.6,27.6,08.8,06.1,0684.3,31.9
2021-07-30T17:27:00Z,00000200,00000000,0009.43,0006.66,0004.06,0001.23,0000.91,0000.62,0002.31,0002.21,0001.28,21.6,27.6,08.8,06.1,0684.3,31.9
2021-07-30T17:28:00Z,00000200,00000000,0010.85,0007.23,0004.15,0001.19,0000.96,0000.57,0002.47,0002.28,0001.51,21.6,27.6,09.1,06.3,0684.3,31.9
2021-07-30T17:29:00Z,00000200,00000000,0011.22,0007.46,0004.40,0001.25,0000.93,0000.87,0002.40,0002.32,0001.90,21.6,27.6,09.1,06.4,0684.3,31.9
2021-07-30T17:30:00Z,00000200,00000000,0010.88,0007.51,0004.56,0001.30,0001.03,0000.70,0002.83,0002.26,0001.71,21.6,27.6,09.3,06.5,0684.3,31.9
2021-07-30T17:31:00Z,00000200,00000000,0009.09,0006.60,0003.57,0000.80,0000.94,0000.50,0001.98,0001.91,0001.51,21.6,27.6,09.1,06.4,0684.3,31.9
2021-07-30T17:32:00Z,00000200,00000000,0007.49,0005.53,0003.01,0000.53,0000.67,0000.32,0001.93,0001.77,0001.40,21.6,27.6,09.0,06.3,0684.3,31.9
2021-07-30T17:33:00Z,00000200,00000000,0007.97,0005.67,0002.81,0001.78,0001.04,0000.79,0002.13,0001.73,0001.16,21.6,27.6,09.0,06.3,0684.3,31.9
2021-07-30T17:34:00Z,00000200,00000000,0007.55,0004.91,0002.39,0001.41,0000.67,0000.31,0001.78,0001.80,0001.27,21.6,27.6,08.9,06.2,0684.3,31.9
2021-07-30T17:35:00Z,00000200,00000000,0008.19,0005.71,0003.49,0001.29,0000.83,0000.76,0002.09,0001.72,0001.19,21.6,27.6,09.2,06.4,0684.3,31.9
2021-07-30T17:36:00Z,00000200,00000000,0008.67,0006.14,0003.77,0001.10,0000.82,0000.92,0001.90,0001.63,0000.95,21.6,27.6,09.0,06.3,0684.3,31.9
2021-07-30T17:37:00Z,00000200,00000000,0008.60,0005.50,0003.25,0001.08,0001.02,0000.67,0001.70,0001.92,0001.40,21.6,27.6,08.9,06.2,0684.3,31.9
2021-07-30T17:38:00Z,00000200,00000000,0007.55,0004.82,0002.60,0001.32,0000.96,0000.60,0001.87,0001.45,0001.32,21.6,27.6,08.7,06.1,0684.3,31.9
2021-07-30T17:39:00Z,00000200,00000000,0006.18,0004.70,0002.68,0001.51,0000.57,0000.72,0001.83,0001.83,0001.28,21.6,27.6,08.8,06.1,0684.3,31.9
2021-07-30T17:40:00Z,00000200,00000000,0007.79,0005.26,0002.81,0001.18,0000.82,0000.57,0001.77,0001.48,0001.08,21.6,27.6,08.8,06.1,0684.3,31.9
2021-07-30T17:41:00Z,00000200,00000000,0008.40,0005.98,0003.22,0000.88,0000.85,0000.93,0002.01,0001.87,0001.65,21.6,27.6,08.7,06.1,0684.3,31.9
2021-07-30T17:42:00Z,00000200,00000000,0006.00,0004.40,0001.86,0000.96,0000.82,0000.00,0001.60,0001.28,0001.02,21.6,27.6,08.7,06.1,0684.3,31.9
2021-07-30T17:43:00Z,00000200,00000000,0008.21,0005.49,0002.64,0000.72,0000.84,0000.50,0001.79,0001.89,0001.28,21.6,27.6,08.8,06.1,0684.2,32.0
2021-07-30T17:44:00Z,00000200,00000000,0009.52,0005.86,0003.16,0001.08,0000.78,0000.23,0001.93,0001.37,0001.09,21.6,27.6,08.9,06.2,0684.2,32.0
2021-07-30T17:45:00Z,00000200,00000000,0007.95,0005.63,0003.24,0000.62,0000.88,0000.10,0002.06,0002.18,0001.58,21.6,27.6,08.7,06.1,0684.2,32.0
2021-07-30T17:46:00Z,00000200,00000000,0007.48,0006.45,0003.83,0001.34,0000.99,0001.01,0002.31,0002.02,0001.38,21.6,27.6,08.9,06.2,0684.2,32.0
2021-07-30T17:47:00Z,00000200,00000000,0009.09,0006.84,0003.37,0001.17,0001.11,0000.71,0002.09,0002.33,0001.61,21.6,27.6,09.1,06.3,0684.2,32.0
2021-07-30T17:48:00Z,00000200,00000000,0009.38,0006.98,0003.91,0001.40,0001.07,0000.56,0002.57,0001.98,0001.51,21.6,27.6,09.1,06.3,0684.2,32.0
2021-07-30T17:49:00Z,00000200,00000000,0010.63,0007.34,0004.35,0001.49,0001.16,0000.39,0002.47,0001.99,0001.65,21.6,27.6,09.0,06.3,0684.2,32.0
2021-07-30T17:50:00Z,00000200,00000000,0010.85,0007.52,0004.06,0001.60,0001.24,0000.72,0002.52,0002.20,0001.81,21.6,27.6,09.1,06.3,0684.2,32.0
2021-07-30T17:51:00Z,00000200,00000000,0009.32,0005.67,0003.35,0001.36,0000.72,0000.55,0001.88,0002.06,0001.32,21.6,27.6,08.9,06.2,0684.2,32.0
2021-07-30T17:52:00Z,00000200,00000000,0007.92,0004.73,0003.01,0001.14,0000.80,0000.61,0001.78,0001.60,0001.12,21.6,27.6,09.0,06.2,0684.2,32.0
2021-07-30T17:53:00Z,00000200,00000000,0009.31,0005.67,0003.30,0001.42,0001.04,0000.72,0001.97,0001.75,0001.31,21.6,27.6,08.8,06.2,0684.2,32.0
2021-07-30T17:54:00Z,00000200,00000000,0008.74,0005.51,0003.28,0000.86,0001.08,0000.38,0001.92,0001.51,0001.07,21.6,27.6,09.0,06.3,0684.2,32.0
2021-07-30T17:55:00Z,00000200,00000000,0008.57,0005.69,0003.57,0001.11,0001.02,0000.78,0001.91,0001.53,0001.38,21.6,27.6,09.0,06.3,0684.3,32.0
2021-07-30T17:56:00Z,00000200,00000000,0009.27,0005.99,0003.66,0001.20,0001.02,0000.56,0002.11,0002.50,0001.52,21.6,27.6,09.0,06.3,0684.2,32.0
2021-07-30T17:57:00Z,00000200,40000000,,,,,,,0000.71,0000.48,0000.51,21.6,27.6,08.7,06.1,0684.2,32.0
2021-07-30T17:58:00Z,00000200,60000000,,,,,,,0000.21,-000.39,-000.21,21.4,27.7,08.9,06.1,0683.2,32.0
2021-07-30T17:59:00Z,00000200,20000000,,,,,,,-000.34,-000.04,0000.07,21.4,27.8,08.9,06.1,0683.2,32.0
